NOAA 20 (JPSS-1)

Last updated on Sun Jun 21 2026 00:02:47 GMT+0000 (Coordinated Universal Time)

1 43013U 17073A 26171.38467992 .00000046 00000+0 42637-4 0 9999 2 43013 98.7771 110.8189 0000383 117.6624 242.4591 14.19512290444925
UTC large
Height (km)
Speed (km/s)
/
Latitude / Longitude
Inclination (degrees)
Orbital Period (minutes)
Azimuth
Elevation
Range (km)
Doppler Factor

Next 0 passes for location: London (51.5072 / 0.1276)

No passes found over London.
NOAA 20 (JPSS-1)